Regional Weather Roundup
Issued by NWS

Home | Current Version | Previous Version | Graphics & Text | Print | Product List | Glossary On
Versions: 1 2 3 4 5 6 7 8 9 10 11 12 13 14 15 16 17 18 19 20 21 22 23 24 25 26 27 28 29 30 31 32 33 34 35 36 37 38 39 40 41 42 43 44 45 46 47 48 49 50
000
ASUS45 KABQ 231010
RWRNM
NEW MEXICO REGIONAL WEATHER ROUNDUP
NATIONAL WEATHER SERVICE ALBUQUERQUE NM
400 AM MDT SUN APR 23 2017

NOTE: "FAIR" MEANS FEW OR NO CLOUDS BELOW 12,000 FEET AGL WITH NO
       SIGNIFICANT WEATHER OR OBSTRUCTIONS TO VISION.

      THIS PRODUCT IS RELEASED AS TWO VERSIONS.  ONE VERSION NEAR
      THE TOP OF THE HOUR CONTAINING PRELIMINARY DATA FROM ALBUQUERQUE
      AND OTHER STATIONS.  A FINAL VERSION WITH ADDITIONAL DATA IS
      ISSUED ABOUT 10 MINUTES AFTER THE HOUR.

NMZ501-503-504-510>518-231100-
NORTHWEST PLATEAU/NORTHCENTRAL MOUNTAINS

CITY           SKY/WX    TMP DP  RH WIND       PRES   REMARKS
FARMINGTON     FAIR      40  21  46 E10       30.13S WCI  33
LOS ALAMOS     FAIR      37  28  68 S9        30.29S WCI  31
SANTA FE       FAIR      37  28  70 SE8       30.27S WCI  31
TAOS             N/A     30  18  59 CALM      30.27S
ANGEL FIRE     FAIR      29  26  89 SE13      30.27F WCI  18

$$
NMZ402-403-502-505>509-231100-
WESTCENTRAL MOUNTAINS/SOUTHWEST MOUNTAINS

CITY           SKY/WX    TMP DP  RH WIND       PRES   REMARKS
GALLUP         FAIR      33  16  49 CALM      30.15F
GRANTS         FAIR      42  29  59 S17       30.21S
SILVER CITY    FAIR      47  32  55 E8        30.20R

$$
NMZ407-409-411-412-231100-
SOUTHERN DESERTS

CITY           SKY/WX    TMP DP  RH WIND       PRES   REMARKS
DEMING         FAIR      49  33  54 NE10      30.16F
LAS CRUCES     FAIR      54  33  45 SE14      30.18S
HOLLOMAN AFB   FAIR      49  32  51 SW3       30.22R
ALAMOGORDO     FAIR      54  32  43 N5        30.19S
T OR C         FAIR      52  30  43 NE6       30.18S

$$
NMZ519>523-231100-
CENTRAL VALLEYS/CENTRAL HIGHLANDS

CITY           SKY/WX    TMP DP  RH WIND       PRES   REMARKS
ALBUQUERQUE    FAIR      48  29  47 E15       30.22S
MORIARTY ARPT  FAIR      30  26  86 CALM      30.30F
CLINES CORNERS FAIR      32  25  75 SE8       30.29F WCI  25
BELEN          FAIR      44  29  54 N6        30.22S
SOCORRO        FAIR      45  29  52 CALM      30.21S

$$
NMZ524>526-539-540-231100-
SOUTHCENTRAL MOUNTAINS

CITY           SKY/WX    TMP DP  RH WIND       PRES   REMARKS
RUIDOSO        FAIR      34  27  75 SE7       30.32S WCI  28

$$
NMZ527>531-231100-
NORTHEAST HIGHLANDS/NORTHEAST PLAINS

CITY           SKY/WX    TMP DP  RH WIND       PRES   REMARKS
LAS VEGAS      FAIR      28  25  88 S8        30.28F WCI  20
RATON          FAIR      30  26  85 N5        30.23F WCI  25
CLAYTON        FAIR      35  28  75 SW9       30.23F WCI  28

$$
NMZ532>537-231100-
EASTCENTRAL PLAINS

CITY           SKY/WX    TMP DP  RH WIND       PRES   REMARKS
SANTA ROSA     FAIR      37  28  70 CALM      30.27S
TUCUMCARI      FAIR      41  30  65 SW3       30.24F
CANNON AFB     FAIR      38  33  82 SW3       30.27S
CLOVIS AIRPORT FAIR      37  27  65 E3        30.26F

$$
NMZ028-029-538-231100-
SOUTHEAST PLAINS

CITY           SKY/WX    TMP DP  RH WIND       PRES   REMARKS
ROSWELL        FAIR      45  32  60 SW6         N/A
ARTESIA        FAIR      48  34  57 S3        30.28S
CARLSBAD       FAIR      44  34  67 S5        30.25F
HOBBS          FAIR      41  32  70 NE3       30.27F


$$



USA.gov is the U.S. government's official web portal to all federal, state and local government web resources and services.